Location: Utrecht
(52.0907°N, 5.1214°E)
Time: 11:14:08
(UTC+02:00)

NANOSAT C BR1 - Pass Details

Date: 01 July 2022
Orbit: 584 x 599 km, 98.0° (Epoch: 13 August)

Event Time Altitude Azimuth Distance (km) Brightness Sun altitude
Rises 03:10:31 0° 22° (NNE) 2,850 ? -12.4°
Reaches altitude 10° 03:12:55 10° 33° (NNE) 1,945 ? -12.3°
Maximum altitude 03:16:38 30° 95° (E) 1,089 ? -12.1°
Drops below altitude 10° 03:20:22 10° 157° (SSE) 1,937 ? -11.9°
Enters shadow 03:20:39 - 159° (SSE) 2,044 ? -11.8°
